User: anonymous   Login
Location: *
(33.8649°S, 62.1526°E)
Time: 12:05:58
(UTC+00:00)
Language:

Cosmos 2369 Rocket - Orbit

View from above orbital plane
View from above orbital plane
View from above satellite
View from above satellite

Ground track
Ground track

The orbit data is extracted from the following two-line orbital elements,

1 26070U 00006B   21206.96989978 -.00000193  00000-0 -74247-4 0  9990
2 26070  71.0003  45.3050 0018383 234.8651 125.0750 14.15467019109690
Epoch (UTC): 25 July 2021 23:16:39
Eccentricity: 0.0018383
inclination: 71.0003°
perigee height: 827 km
apogee height: 854 km
right ascension of ascending node: 45.3050°
argument of perigee: 234.8651°
revolutions per day: 14.15467019
mean anomaly at epoch: 125.0750°
orbit number at epoch: 10969

The dashed part of the orbit path shows where the satellite is in the earth's shadow,  

DLR